Change the Weather History Date:

Wednesday, December 5, 2012

  Actual Average (KBMQ) Record (KBMQ)
Temperature  
Mean Temperature 55 °F -  
Max Temperature 75 °F 60 °F 75 °F (1998)
Min Temperature 35 °F 41 °F 28 °F (2005)
Degree Days  
Heating Degree Days 10    
Growing Degree Days 5 (Base 50)    
Moisture  
Dew Point 31 °F    
Average Humidity 48    
Maximum Humidity 81    
Minimum Humidity 18    
Precipitation  
Precipitation 0.00 in - - ()
Sea Level Pressure  
Sea Level Pressure 30.21 in    
Wind  
Wind Speed 1 mph (West)    
Max Wind Speed 6 mph    
Max Gust Speed -    
Visibility 10 miles    
Events      
Averages and records for this station are not official NWS values.
T = Trace of Precipitation, MM = Missing Value Source: NWS Daily Summary

Daily Weather History Graph

Daily Weather History Graph

Search for Another Location

Airport or City:

Trip Planner

Search our weather history database for the weather conditions in past years. The results will help you decide how hot, cold, wet, or windy it might be!

Date:

Astronomy

Dec. 05, 2012 Rise Set
Actual Time 7:18 AM CST 5:32 PM CST
Civil Twilight 6:51 AM CST 5:59 PM CST
Nautical Twilight 6:21 AM CST 6:29 PM CST
Astronomical Twilight 5:52 AM CST 6:58 PM CST
Moon No Moon Rise 12:00 PM CST (12/5)
Length of Visible Light 11h 07m
Length of Day
10h 14m
Waning Gibbous, 59% of the Moon is Illuminated
Dec 5
Waning Gibbous
Dec 6
Last Quarter
Dec 13
New
Dec 19
First Quarter
Dec 28
Full

Hourly Weather History & Observations

Time (CST) Temp. Windchill Dew Point Humidity Pressure Visibility Wind Dir Wind Speed Gust Speed Precip Events Conditions
12:15 AM 42.8 °F - 33.8 °F 70% 30.30 in 10.0 mi Calm Calm - N/A   Clear
12:35 AM 42.8 °F - 32.0 °F 66% 30.30 in 10.0 mi Calm Calm - N/A   Clear
12:55 AM 42.8 °F - 33.8 °F 70% 30.30 in 10.0 mi Calm Calm - N/A   Clear
1:15 AM 42.8 °F - 32.0 °F 66% 30.30 in 10.0 mi Calm Calm - N/A   Clear
1:55 AM 41.0 °F 39.0 °F 32.0 °F 70% 30.30 in 10.0 mi West 3.5 mph - N/A   Clear
2:15 AM 41.0 °F 39.0 °F 32.0 °F 70% 30.30 in 10.0 mi WNW 3.5 mph - N/A   Clear
2:35 AM 37.4 °F 33.8 °F 32.0 °F 81% 30.30 in 10.0 mi NNW 4.6 mph - N/A   Clear
2:55 AM 37.4 °F 33.8 °F 32.0 °F 81% 30.30 in 10.0 mi NNW 4.6 mph - N/A   Clear
3:15 AM 44.6 °F 43.1 °F 30.2 °F 57% 30.31 in 10.0 mi North 3.5 mph - N/A   Clear
3:35 AM 44.6 °F 43.1 °F 28.4 °F 53% 30.31 in 10.0 mi North 3.5 mph - N/A   Clear
3:55 AM 44.6 °F - 28.4 °F 53% 30.30 in 10.0 mi Calm Calm - N/A   Clear
4:15 AM 42.8 °F 41.1 °F 30.2 °F 61% 30.31 in 10.0 mi NW 3.5 mph - N/A   Clear
4:35 AM 37.4 °F - 30.2 °F 75% 30.30 in 10.0 mi Calm Calm - N/A   Clear
4:55 AM 37.4 °F - 30.2 °F 75% 30.30 in 10.0 mi Calm Calm - N/A   Clear
5:15 AM 35.6 °F - 30.2 °F 81% 30.29 in 10.0 mi Calm Calm - N/A   Clear
5:35 AM 35.6 °F - 30.2 °F 81% 30.29 in 10.0 mi Calm Calm - N/A   Clear
5:55 AM 35.6 °F 31.7 °F 30.2 °F 81% 30.30 in 10.0 mi West 4.6 mph - N/A   Clear
6:15 AM 39.2 °F 37.0 °F 30.2 °F 70% 30.30 in 10.0 mi NNW 3.5 mph - N/A   Clear
6:35 AM 35.6 °F - 30.2 °F 81% 30.31 in 10.0 mi Calm Calm - N/A   Clear
6:55 AM 37.4 °F - 30.2 °F 75% 30.32 in 10.0 mi Calm Calm - N/A   Clear
8:35 AM 42.8 °F - 32.0 °F 66% 30.32 in 10.0 mi Calm Calm - N/A   Clear
8:55 AM 46.4 °F 45.2 °F 32.0 °F 57% 30.32 in 10.0 mi West 3.5 mph - N/A   Clear
9:15 AM 48.2 °F - 32.0 °F 54% 30.32 in 10.0 mi Calm Calm - N/A   Clear
9:35 AM 53.6 °F - 30.2 °F 41% 30.32 in 10.0 mi Calm Calm - N/A   Clear
9:55 AM 55.4 °F - 30.2 °F 38% 30.32 in 10.0 mi Calm Calm - N/A   Clear
10:15 AM 57.2 °F - 30.2 °F 36% 30.31 in 10.0 mi Calm Calm - N/A   Clear
10:35 AM 60.8 °F - 32.0 °F 34% 30.30 in 10.0 mi Calm Calm - N/A   Clear
10:55 AM 60.8 °F - 32.0 °F 34% 30.30 in 10.0 mi ESE 3.5 mph - N/A   Clear
11:15 AM 62.6 °F - 32.0 °F 32% 30.30 in 10.0 mi Calm Calm - N/A   Clear
11:35 AM 64.4 °F - 32.0 °F 30% 30.28 in 10.0 mi Calm Calm - N/A   Clear
11:55 AM 66.2 °F - 32.0 °F 28% 30.26 in 10.0 mi Calm Calm - N/A   Clear
12:15 PM 68.0 °F - 32.0 °F 26% 30.25 in 10.0 mi Calm Calm - N/A   Clear
12:35 PM 69.8 °F - 32.0 °F 25% 30.23 in 10.0 mi SSW 3.5 mph - N/A   Clear
12:55 PM 69.8 °F - 32.0 °F 25% 30.21 in 10.0 mi South 4.6 mph - N/A   Clear
1:15 PM 71.6 °F - 30.2 °F 22% 30.20 in 10.0 mi Calm Calm - N/A   Clear
1:35 PM 71.6 °F - 30.2 °F 22% 30.18 in 10.0 mi Calm Calm - N/A   Clear
1:55 PM 71.6 °F - 28.4 °F 20% 30.17 in 10.0 mi WSW 4.6 mph - N/A   Clear
2:15 PM 73.4 °F - 28.4 °F 19% 30.16 in 10.0 mi WSW 5.8 mph - N/A   Clear
2:35 PM 71.6 °F - 28.4 °F 20% 30.15 in 10.0 mi Calm Calm - N/A   Clear
2:55 PM 73.4 °F - 28.4 °F 19% 30.14 in 10.0 mi Calm Calm - N/A   Clear
3:15 PM 73.4 °F - 28.4 °F 19% 30.13 in 10.0 mi Calm Calm - N/A   Clear
3:35 PM 73.4 °F - 28.4 °F 19% 30.12 in 10.0 mi SE 3.5 mph - N/A   Clear
3:55 PM 73.4 °F - 28.4 °F 19% 30.11 in 10.0 mi SSE 5.8 mph - N/A   Clear
4:15 PM 75.2 °F - 28.4 °F 18% 30.11 in 10.0 mi Calm Calm - N/A   Clear
4:35 PM 73.4 °F - 28.4 °F 19% 30.11 in 10.0 mi Calm Calm - N/A   Clear
4:55 PM 71.6 °F - 30.2 °F 22% 30.11 in 10.0 mi Calm Calm - N/A   Clear
5:15 PM 69.8 °F - 30.2 °F 23% 30.11 in 10.0 mi Calm Calm - N/A   Clear
5:35 PM 66.2 °F - 30.2 °F 26% 30.10 in 10.0 mi SE 3.5 mph - N/A   Clear
5:55 PM 62.6 °F - 30.2 °F 30% 30.11 in 10.0 mi Calm Calm - N/A   Clear
6:15 PM 59.0 °F - 32.0 °F 36% 30.10 in 10.0 mi Calm Calm - N/A   Clear
6:35 PM 55.4 °F - 30.2 °F 38% 30.10 in 10.0 mi Calm Calm - N/A   Clear
6:55 PM 51.8 °F - 32.0 °F 47% 30.11 in 10.0 mi Calm Calm - N/A   Clear
7:15 PM 50.0 °F - 32.0 °F 50% 30.11 in 10.0 mi Calm Calm - N/A   Clear
7:35 PM 50.0 °F - 32.0 °F 50% 30.11 in 10.0 mi Calm Calm - N/A   Clear
7:55 PM 48.2 °F - 30.2 °F 50% 30.11 in 9.0 mi Calm Calm - N/A   Clear
8:15 PM 48.2 °F - 30.2 °F 50% 30.12 in 10.0 mi Calm Calm - N/A   Clear
8:35 PM 50.0 °F - 30.2 °F 47% 30.12 in 10.0 mi Calm Calm - N/A   Clear
8:55 PM 50.0 °F - 32.0 °F 50% 30.12 in 10.0 mi Calm Calm - N/A   Clear
9:15 PM 51.8 °F - 32.0 °F 47% 30.12 in 10.0 mi Calm Calm - N/A   Clear
9:35 PM 50.0 °F - 32.0 °F 50% 30.11 in 10.0 mi Calm Calm - N/A   Clear
9:55 PM 50.0 °F - 33.8 °F 54% 30.10 in 10.0 mi Calm Calm - N/A   Clear
10:15 PM 48.2 °F - 33.8 °F 58% 30.10 in 10.0 mi Calm Calm - N/A   Clear
10:35 PM 46.4 °F - 33.8 °F 62% 30.10 in 10.0 mi Calm Calm - N/A   Clear
10:55 PM 46.4 °F - 33.8 °F 62% 30.09 in 10.0 mi Calm Calm - N/A   Clear
11:15 PM 42.8 °F - 33.8 °F 70% 30.09 in 10.0 mi Calm Calm - N/A   Clear
11:35 PM 42.8 °F - 33.8 °F 70% 30.09 in 10.0 mi Calm Calm - N/A   Clear
11:55 PM 41.0 °F - 33.8 °F 76% 30.09 in 10.0 mi Calm Calm - N/A   Clear